DW9161 Weather Reports


Display with metric or nautical units.
time (UTC)temp
F
wind
direction
speed
MPH
gust
MPH
rain 1hr
in
rain 24hr
in
rain mn
in
humidity
%
barometer
mb
20260508151532 62 192 3.0 5.0 0.00 0.00 0.00 53 1009.4
20260508151031 62 193 3.0 5.0 0.00 0.00 0.00 53 1009.5
20260508150558 62 191 3.0 7.0 0.00 0.00 0.00 53 1009.5
20260508150038 62 191 4.0 7.0 0.00 0.00 0.00 52 1009.5
20260508145538 61 188 4.0 5.0 0.00 0.00 0.00 52 1009.5
20260508145036 61 202 3.0 5.0 0.00 0.00 0.00 53 1009.6
20260508144532 60 202 4.0 5.0 0.00 0.00 0.00 54 1009.6
20260508144030 60 203 2.0 5.0 0.00 0.00 0.00 54 1009.6
20260508143548 59 205 3.0 5.0 0.00 0.00 0.00 55 1009.7
20260508143108 59 205 1.0 4.0 0.00 0.00 0.00 54 1009.7
20260508142545 59 162 2.0 4.0 0.00 0.00 0.00 56 1009.7
20260508142042 59 156 0.0 4.0 0.00 0.00 0.00 54 1009.7
20260508141602 58 153 1.0 3.0 0.00 0.00 0.00 55 1009.6
20260508141037 58 151 1.0 3.0 0.00 0.00 0.00 57 1009.7
20260508140604 57 151 1.0 3.0 0.00 0.00 0.00 58 1009.6
20260508140043 56 149 1.0 3.0 0.00 0.00 0.00 59 1009.6
20260508135601 56 149 2.0 3.0 0.00 0.00 0.00 58 1009.7
20260508135039 55 149 1.0 2.0 0.00 0.00 0.00 61 1009.7
20260508134558 55 149 0.0 2.0 0.00 0.00 0.00 62 1009.8
20260508134034 54 149 1.0 2.0 0.00 0.00 0.00 63 1009.8
20260508133547 54 149 0.0 3.0 0.00 0.00 0.00 65 1009.9
20260508133041 54 149 1.0 3.0 0.00 0.00 0.00 66 1009.9
20260508132602 54 149 2.0 3.0 0.00 0.00 0.00 67 1009.9
20260508132037 54 148 2.0 3.0 0.00 0.00 0.00 72 1009.9
20260508131536 54 148 0.0 2.0 0.00 0.00 0.00 70 1009.7
20260508131038 54 148 0.0 0.0 0.00 0.00 0.00 69 1009.6
20260508130608 54 148 0.0 1.0 0.00 0.00 0.00 69 1009.5
20260508130047 54 148 0.0 1.0 0.00 0.00 0.00 68 1009.5
20260508125545 54 148 0.0 1.0 0.00 0.00 0.00 70 1009.4
20260508125042 54 148 0.0 1.0 0.00 0.00 0.00 69 1009.4
20260508124540 54 148 0.0 0.0 0.00 0.00 0.00 68 1009.5
20260508124036 54 148 0.0 2.0 0.00 0.00 0.00 68 1009.4
20260508123535 54 148 1.0 2.0 0.00 0.00 0.00 67 1009.4
20260508123053 53 148 1.0 3.0 0.00 0.00 0.00 66 1009.2
20260508122550 53 148 2.0 4.0 0.00 0.00 0.00 65 1009.2
20260508122046 52 148 3.0 4.0 0.00 0.00 0.00 70 1009.2
20260508121544 52 95 2.0 4.0 0.00 0.00 0.00 68 1009.3
20260508121042 52 314 1.0 5.0 0.00 0.00 0.00 70 1009.4
20260508120549 52 97 4.0 5.0 0.00 0.00 0.00 70 1009.0
20260508120048 52 321 0.0 0.0 0.00 0.00 0.00 65 1009.5
20260508115546 51 321 0.0 0.0 0.00 0.00 0.00 63 1009.6
20260508115045 51 321 0.0 0.0 0.00 0.00 0.00 64 1009.6
20260508114543 51 321 0.0 0.0 0.00 0.00 0.00 63 1009.4
20260508114042 51 321 0.0 0.0 0.00 0.00 0.00 64 1009.2
20260508113539 51 321 0.0 0.0 0.00 0.00 0.00 64 1009.2
20260508113056 51 321 0.0 0.0 0.00 0.00 0.00 63 1009.2
20260508112544 51 321 0.0 0.0 0.00 0.00 0.00 62 1009.1
20260508112041 51 321 0.0 0.0 0.00 0.00 0.00 61 1009.1
20260508111538 51 321 0.0 1.0 0.00 0.00 0.00 61 1009.1
20260508111055 51 321 0.0 1.0 0.00 0.00 0.00 59 1009.2
20260508110600 52 321 0.0 2.0 0.00 0.00 0.00 58 1009.4
20260508110039 52 321 1.0 2.0 0.00 0.00 0.00 58 1009.4
20260508105531 52 321 0.0 3.0 0.00 0.00 0.00 57 1009.1
20260508105048 52 321 1.0 3.0 0.00 0.00 0.00 57 1009.4
20260508104545 52 321 1.0 2.0 0.00 0.00 0.00 57 1009.3
20260508104042 52 321 0.0 3.0 0.00 0.00 0.00 55 1009.1
20260508103541 52 321 2.0 3.0 0.00 0.00 0.00 53 1009.0
20260508103038 53 321 1.0 2.0 0.00 0.00 0.00 53 1009.5
20260508102536 53 321 1.0 2.0 0.00 0.00 0.00 52 1009.6
20260508102031 53 321 1.0 5.0 0.00 0.00 0.00 51 1009.6
20260508101533 53 321 1.0 5.0 0.00 0.00 0.00 51 1009.8
20260508101052 53 331 3.0 4.0 0.00 0.00 0.00 50 1009.8
20260508100600 53 331 3.0 4.0 0.00 0.00 0.00 52 1009.7
20260508100038 53 331 1.0 2.0 0.00 0.00 0.00 52 1009.5
20260508095532 53 331 1.0 2.0 0.00 0.00 0.00 53 1009.6
20260508095050 53 331 1.0 2.0 0.00 0.00 0.00 53 1009.9
20260508094547 53 331 0.0 3.0 0.00 0.00 0.00 52 1009.9
20260508094106 53 331 1.0 3.0 0.00 0.00 0.00 52 1009.9
20260508093604 53 331 2.0 3.0 0.00 0.00 0.00 52 1009.9
20260508092547 53 331 0.0 2.0 0.00 0.00 0.00 53 1009.9
20260508092044 53 331 0.0 1.0 0.00 0.00 0.00 53 1009.8
20260508091542 54 331 0.0 1.0 0.00 0.00 0.00 51 1009.9
20260508091040 54 331 1.0 2.0 0.00 0.00 0.00 50 1009.9
20260508090608 54 331 1.0 2.0 0.00 0.00 0.00 49 1009.8
20260508090046 55 331 0.0 2.0 0.00 0.00 0.00 48 1009.7
20260508085545 55 331 1.0 2.0 0.00 0.00 0.00 49 1009.8
20260508085039 55 331 1.0 2.0 0.00 0.00 0.00 49 1009.9
20260508084536 56 331 0.0 2.0 0.00 0.00 0.00 48 1009.6
20260508084032 56 331 0.0 2.0 0.00 0.00 0.00 45 1009.7
20260508083535 56 331 0.0 2.0 0.00 0.00 0.00 46 1009.6
20260508083032 56 331 0.0 2.0 0.00 0.00 0.00 46 1009.8
20260508082551 56 331 1.0 2.0 0.00 0.00 0.00 46 1009.9
20260508082046 56 331 0.0 1.0 0.00 0.00 0.00 46 1010.0
20260508081543 56 331 0.0 1.0 0.00 0.00 0.00 45 1010.1
20260508081040 56 331 0.0 3.0 0.00 0.00 0.00 45 1010.0
20260508080548 56 331 2.0 3.0 0.00 0.00 0.00 46 1009.8
20260508080049 57 331 0.0 1.0 0.00 0.00 0.00 47 1010.2
20260508075546 57 331 0.0 1.0 0.00 0.00 0.00 47 1010.3
20260508075106 57 331 1.0 1.0 0.00 0.00 0.00 44 1010.2
20260508074543 57 331 0.0 2.0 0.00 0.00 0.00 45 1010.3
20260508074041 57 331 1.0 2.0 0.00 0.00 0.00 44 1010.3
20260508073539 57 331 1.0 3.0 0.00 0.00 0.00 43 1010.1
20260508073057 58 331 1.0 3.0 0.00 0.00 0.00 42 1010.1
20260508072535 58 331 0.0 1.0 0.00 0.00 0.00 42 1009.9
20260508072112 58 331 0.0 2.0 0.00 0.00 0.00 41 1009.8
20260508071549 58 331 1.0 2.0 0.00 0.00 0.00 40 1009.9
20260508071045 58 331 0.0 2.0 0.00 0.00 0.00 42 1009.9
20260508070552 58 331 0.0 2.0 0.00 0.00 0.00 40 1009.9
20260508070036 57 331 1.0 2.0 0.00 0.00 0.00 41 1009.8
20260508065532 57 331 0.0 1.0 0.00 0.00 0.00 43 1009.9
20260508065049 57 331 0.0 2.0 0.00 0.00 0.00 48 1010.1
20260508064547 57 331 0.0 2.0 0.00 0.00 0.00 44 1010.0
20260508064046 57 331 0.0 1.0 0.00 0.00 0.00 45 1010.2
20260508063542 57 331 0.0 1.0 0.00 0.00 0.00 43 1010.2
20260508063100 57 331 0.0 0.0 0.00 0.00 0.00 41 1010.3
20260508062537 57 331 0.0 0.0 0.00 0.00 0.00 41 1010.3
20260508062055 57 331 0.0 0.0 0.00 0.00 0.00 40 1010.3
20260508061610 58 331 0.0 0.0 0.00 0.00 0.00 40 1010.4
20260508061109 58 331 0.0 0.0 0.00 0.00 0.00 40 1010.3
20260508060556 58 331 0.0 1.0 0.00 0.00 0.00 39 1010.1
20260508060035 58 331 0.0 1.0 0.00 0.00 0.00 38 1010.0
20260508055533 59 331 0.0 2.0 0.00 0.00 0.00 38 1010.0
20260508055051 59 331 1.0 2.0 0.00 0.00 0.00 37 1009.9
20260508054549 59 331 1.0 2.0 0.00 0.00 0.00 38 1009.8
20260508054046 59 331 0.0 0.0 0.00 0.00 0.00 38 1009.9
20260508053545 59 331 0.0 1.0 0.00 0.00 0.00 38 1009.9
20260508053043 59 331 0.0 2.0 0.00 0.00 0.00 38 1009.9
20260508052541 59 331 1.0 2.0 0.00 0.00 0.00 38 1009.9
20260508052042 59 331 1.0 2.0 0.00 0.00 0.00 38 1009.9
20260508051559 59 331 0.0 2.0 0.00 0.00 0.00 39 1009.9
20260508051054 59 331 1.0 2.0 0.00 0.00 0.00 38 1009.9
20260508050555 59 331 1.0 1.0 0.00 0.00 0.00 39 1009.9
20260508050039 58 331 0.0 0.0 0.00 0.00 0.00 39 1010.1
20260508045535 58 331 0.0 1.0 0.00 0.00 0.00 39 1010.1
20260508045034 58 331 0.0 1.0 0.00 0.00 0.00 40 1010.3
20260508044548 58 331 0.0 1.0 0.00 0.00 0.00 40 1010.3
20260508044046 58 331 0.0 1.0 0.00 0.00 0.00 40 1010.3
20260508043541 58 331 0.0 0.0 0.00 0.00 0.00 40 1010.2
20260508043038 58 331 0.0 0.0 0.00 0.00 0.00 40 1010.3
20260508042532 58 331 0.0 1.0 0.00 0.00 0.00 39 1010.2
20260508042047 58 331 0.0 2.0 0.00 0.00 0.00 39 1010.1
20260508041604 58 331 0.0 2.0 0.00 0.00 0.00 40 1010.3
20260508041038 58 331 1.0 1.0 0.00 0.00 0.00 40 1010.3
20260508040608 59 331 0.0 1.0 0.00 0.00 0.00 40 1010.3
20260508040107 59 331 0.0 1.0 0.00 0.00 0.00 38 1010.1
20260508035543 59 331 0.0 1.0 0.00 0.00 0.00 38 1010.1
20260508035057 59 331 0.0 1.0 0.00 0.00 0.00 38 1010.2
20260508034544 59 331 0.0 1.0 0.00 0.00 0.00 38 1010.1
20260508034039 60 331 0.0 1.0 0.00 0.00 0.00 39 1010.1
20260508033535 60 331 0.0 1.0 0.00 0.00 0.00 37 1010.3
20260508033031 60 331 0.0 1.0 0.00 0.00 0.00 37 1010.3
20260508032532 60 331 0.0 1.0 0.00 0.00 0.00 39 1010.3
20260508032047 60 331 1.0 1.0 0.00 0.00 0.00 39 1010.3
20260508031543 60 331 0.0 1.0 0.00 0.00 0.00 38 1010.2
20260508031038 60 331 0.0 1.0 0.00 0.00 0.00 39 1010.2
20260508030606 60 331 0.0 1.0 0.00 0.00 0.00 39 1010.1
20260508030045 60 331 0.0 1.0 0.00 0.00 0.00 39 1010.1
20260508025540 60 331 0.0 1.0 0.00 0.00 0.00 39 1010.1
20260508025037 60 331 0.0 1.0 0.00 0.00 0.00 40 1010.1
20260508024533 60 331 0.0 1.0 0.00 0.00 0.00 40 1010.0
20260508024048 60 331 0.0 0.0 0.00 0.00 0.00 40 1010.0
20260508023606 61 331 0.0 0.0 0.00 0.00 0.00 40 1010.0
20260508023041 61 331 0.0 1.0 0.00 0.00 0.00 39 1010.0
20260508022557 61 331 0.0 1.0 0.00 0.00 0.00 39 1009.9
20260508022033 61 331 0.0 1.0 0.00 0.00 0.00 38 1009.8
20260508021610 62 331 0.0 1.0 0.00 0.00 0.00 37 1009.8
20260508021045 62 331 0.0 1.0 0.00 0.00 0.00 36 1009.6
20260508020554 63 331 0.0 1.0 0.00 0.00 0.00 36 1009.5
20260508020050 63 331 0.0 1.0 0.00 0.00 0.00 35 1009.5
20260508015546 63 331 0.0 1.0 0.00 0.00 0.00 35 1009.5
20260508015042 64 331 0.0 1.0 0.00 0.00 0.00 34 1009.4
20260508014537 64 331 0.0 1.0 0.00 0.00 0.00 33 1009.4
20260508014037 64 331 0.0 2.0 0.00 0.00 0.00 32 1009.4
20260508013533 65 331 0.0 2.0 0.00 0.00 0.00 32 1009.4
20260508013050 65 331 0.0 3.0 0.00 0.00 0.00 31 1009.3
20260508012605 66 331 1.0 3.0 0.00 0.00 0.00 31 1009.1
20260508012102 66 331 2.0 4.0 0.00 0.00 0.00 30 1009.1
20260508011536 67 331 2.0 6.0 0.00 0.00 0.00 30 1009.0
20260508011032 68 331 3.0 6.0 0.00 0.00 0.00 30 1009.0
20260508010602 68 328 2.0 4.0 0.00 0.00 0.00 29 1008.9
20260508010038 68 328 2.0 4.0 0.00 0.00 0.00 29 1008.9
20260508005536 68 337 2.0 4.0 0.00 0.00 0.00 31 1008.8
20260508005032 69 340 1.0 5.0 0.00 0.00 0.00 29 1008.7
20260508004548 69 340 2.0 5.0 0.00 0.00 0.00 30 1008.6
20260508004044 69 351 2.0 6.0 0.00 0.00 0.00 29 1008.6
20260508003559 69 324 3.0 5.0 0.00 0.00 0.00 29 1008.6
20260508003034 70 322 3.0 7.0 0.00 0.00 0.00 29 1008.6
20260508002550 70 309 3.0 9.0 0.00 0.00 0.00 28 1008.6
20260508002024 70 337 4.0 8.0 0.00 0.00 0.00 27 1008.6
20260508001043 70 344 4.0 8.0 0.00 0.00 0.00 27 1008.5
20260508000552 70 329 3.0 10.0 0.00 0.00 0.00 27 1008.5
20260508000048 71 278 3.0 10.0 0.00 0.00 0.00 28 1008.5
20260507235545 71 277 4.0 11.0 0.00 0.00 0.00 26 1008.4
20260507235102 71 280 5.0 11.0 0.00 0.00 0.00 24 1008.4
20260507234557 71 339 6.0 10.0 0.00 0.00 0.00 25 1008.4
20260507234050 71 319 3.0 7.0 0.00 0.00 0.00 26 1008.4
20260507233608 71 273 2.0 6.0 0.00 0.00 0.00 26 1008.5
20260507233043 71 346 3.0 10.0 0.00 0.00 0.00 25 1008.5
20260507232540 72 340 6.0 10.0 0.00 0.00 0.00 24 1008.6
20260507232037 72 318 6.0 9.0 0.00 0.00 0.00 25 1008.5
20260507231532 72 277 2.0 9.0 0.00 0.00 0.00 27 1008.5
20260507231050 72 334 3.0 9.0 0.00 0.00 0.00 27 1008.5
20260507230557 72 295 4.0 8.0 0.00 0.00 0.00 26 1008.5
20260507230038 72 312 3.0 5.0 0.00 0.00 0.00 27 1008.4
20260507225532 72 283 3.0 10.0 0.00 0.00 0.00 28 1008.5
20260507225047 72 266 6.0 10.0 0.00 0.00 0.00 26 1008.5
20260507224544 72 266 4.0 9.0 0.00 0.00 0.00 28 1008.5
20260507224039 72 278 5.0 9.0 0.00 0.00 0.00 26 1008.5
20260507223536 72 283 4.0 9.0 0.00 0.00 0.00 27 1008.6
20260507223052 72 272 4.0 9.0 0.00 0.00 0.00 27 1008.6
20260507222541 72 278 5.0 10.0 0.00 0.00 0.00 27 1008.6
20260507222037 72 253 6.0 10.0 0.00 0.00 0.00 26 1008.6
20260507221534 72 277 6.0 10.0 0.00 0.00 0.00 26 1008.5
20260507221031 72 354 5.0 11.0 0.00 0.00 0.00 26 1008.5
20260507220602 72 335 3.0 11.0 0.00 0.00 0.00 26 1008.5
20260507220101 72 253 4.0 11.0 0.00 0.00 0.00 27 1008.5
20260507215537 71 5 6.0 11.0 0.00 0.00 0.00 26 1008.5
20260507215033 72 360 6.0 11.0 0.00 0.00 0.00 26 1008.5
20260507214550 72 333 6.0 10.0 0.00 0.00 0.00 25 1008.5
20260507214046 72 238 4.0 8.0 0.00 0.00 0.00 27 1008.5
20260507213541 72 356 3.0 10.0 0.00 0.00 0.00 28 1008.5
20260507213040 72 278 5.0 10.0 0.00 0.00 0.00 26 1008.7
20260507212534 72 332 4.0 10.0 0.00 0.00 0.00 28 1008.5
20260507212050 72 256 4.0 11.0 0.00 0.00 0.00 26 1008.6
20260507211546 72 258 4.0 11.0 0.00 0.00 0.00 26 1008.6
20260507211043 72 293 5.0 11.0 0.00 0.00 0.00 27 1008.6
20260507210611 72 260 3.0 10.0 0.00 0.00 0.00 28 1008.6
20260507210046 72 237 5.0 10.0 0.00 0.00 0.00 26 1008.7
20260507205543 72 308 3.0 12.0 0.00 0.00 0.00 27 1008.7
20260507205038 73 268 4.0 12.0 0.00 0.00 0.00 27 1008.8
20260507204535 73 307 5.0 10.0 0.00 0.00 0.00 27 1008.8
20260507204051 72 305 4.0 8.0 0.00 0.00 0.00 26 1008.7
20260507203546 72 274 4.0 13.0 0.00 0.00 0.00 28 1008.9
20260507203104 72 279 6.0 11.0 0.00 0.00 0.00 28 1008.9
20260507202538 72 288 3.0 11.0 0.00 0.00 0.00 27 1008.9
20260507202032 72 285 6.0 11.0 0.00 0.00 0.00 28 1009.0
20260507201548 72 295 4.0 11.0 0.00 0.00 0.00 28 1008.9
20260507201044 73 332 4.0 14.0 0.00 0.00 0.00 31 1008.9
20260507200613 73 239 4.0 14.0 0.00 0.00 0.00 29 1009.0
20260507200111 73 238 4.0 16.0 0.00 0.00 0.00 32 1009.0
20260507195607 73 300 5.0 16.0 0.00 0.00 0.00 29 1009.0
20260507195040 72 321 4.0 11.0 0.00 0.00 0.00 29 1009.0
20260507194556 72 291 5.0 11.0 0.00 0.00 0.00 30 1009.0
20260507194051 73 337 5.0 11.0 0.00 0.00 0.00 30 1008.9
20260507193546 72 240 1.0 10.0 0.00 0.00 0.00 33 1008.9
20260507193042 72 265 6.0 10.0 0.00 0.00 0.00 31 1009.1
20260507192536 72 242 3.0 10.0 0.00 0.00 0.00 34 1009.0
20260507192036 71 243 3.0 11.0 0.00 0.00 0.00 33 1009.1
20260507191531 71 210 5.0 11.0 0.00 0.00 0.00 32 1009.1
20260507191047 72 304 5.0 8.0 0.00 0.00 0.00 34 1009.1
20260507190555 71 269 4.0 9.0 0.00 0.00 0.00 35 1009.2
20260507190032 70 276 3.0 8.0 0.00 0.00 0.00 34 1009.3
20260507185549 71 276 3.0 12.0 0.00 0.00 0.00 33 1009.4
20260507185043 71 209 5.0 12.0 0.00 0.00 0.00 32 1009.5
20260507184559 70 300 5.0 10.0 0.00 0.00 0.00 33 1009.6
20260507184032 70 226 4.0 10.0 0.00 0.00 0.00 33 1009.5
20260507183549 71 256 5.0 11.0 0.00 0.00 0.00 33 1009.7
20260507183045 71 300 5.0 12.0 0.00 0.00 0.00 34 1009.7
20260507182604 70 186 2.0 11.0 0.00 0.00 0.00 34 1009.7
20260507182037 69 262 5.0 11.0 0.00 0.00 0.00 35 1009.8
20260507181533 69 227 3.0 11.0 0.00 0.00 0.00 33 1009.9
20260507181049 69 264 6.0 11.0 0.00 0.00 0.00 34 1010.0
20260507180559 69 257 6.0 11.0 0.00 0.00 0.00 34 1010.0
20260507180033 69 267 6.0 11.0 0.00 0.00 0.00 33 1010.0
20260507175548 69 230 3.0 9.0 0.00 0.00 0.00 35 1010.0
20260507175044 69 5 6.0 12.0 0.00 0.00 0.00 33 1010.0
20260507174540 69 267 6.0 12.0 0.00 0.00 0.00 33 1010.3
20260507174039 69 308 6.0 12.0 0.00 0.00 0.00 32 1010.2
20260507173534 69 274 4.0 9.0 0.00 0.00 0.00 32 1010.1
20260507173031 69 278 5.0 10.0 0.00 0.00 0.00 32 1010.2
20260507172548 69 312 5.0 10.0 0.00 0.00 0.00 33 1010.3
20260507172104 68 204 5.0 10.0 0.00 0.00 0.00 33 1010.3
20260507171539 68 275 4.0 11.0 0.00 0.00 0.00 33 1010.4
20260507171035 68 163 6.0 13.0 0.00 0.00 0.00 33 1010.4
20260507170604 67 186 7.0 13.0 0.00 0.00 0.00 34 1010.6
20260507170041 66 233 4.0 13.0 0.00 0.00 0.00 33 1010.6
20260507165535 66 192 6.0 13.0 0.00 0.00 0.00 35 1010.7
20260507165048 66 228 5.0 10.0 0.00 0.00 0.00 35 1010.7
20260507164547 66 250 5.0 13.0 0.00 0.00 0.00 34 1010.8
20260507164043 66 216 7.0 13.0 0.00 0.00 0.00 37 1010.9
20260507163602 65 172 4.0 10.0 0.00 0.00 0.00 36 1011.0
20260507163038 65 276 4.0 10.0 0.00 0.00 0.00 38 1011.1
20260507162555 64 209 5.0 14.0 0.00 0.00 0.00 40 1011.2
20260507162051 64 159 6.0 14.0 0.00 0.00 0.00 40 1011.3
20260507161548 64 196 5.0 10.0 0.00 0.00 0.00 43 1011.3
20260507161046 63 234 2.0 10.0 0.00 0.00 0.00 43 1011.4
20260507160555 63 227 5.0 10.0 0.00 0.00 0.00 46 1011.5
20260507160034 62 238 5.0 9.0 0.00 0.00 0.00 46 1011.6
20260507155537 62 153 4.0 9.0 0.00 0.00 0.00 44 1011.7
20260507154543 62 212 4.0 11.0 0.00 0.00 0.00 49 1011.8
20260507154038 61 254 5.0 11.0 0.00 0.00 0.00 47 1011.8
20260507153536 61 212 4.0 7.0 0.00 0.00 0.00 50 1011.8
20260507153032 61 285 3.0 7.0 0.00 0.00 0.00 51 1011.8
20260507152548 60 231 3.0 9.0 0.00 0.00 0.00 52 1011.9
20260507152047 59 256 3.0 9.0 0.00 0.00 0.00 51 1012.0